Location: Emblem
(62.4273°N, 6.4710°E)
Time: 19:16:33
(UTC+02:00)

Vanguard 2 - Pass Details

Date: 06 February 2023
Orbit: 553 x 2927 km, 32.9° (Epoch: 27 March)

Event Time Altitude Azimuth Distance (km) Brightness Sun altitude
Rises 02:44:11 0° 255° (WSW) 6,427 - -39.1°
Reaches altitude 10° 02:51:46 10° 234° (SW) 5,677 - -38.5°
Maximum altitude 02:58:35 14° 210° (SSW) 5,444 - -38.0°
Drops below altitude 10° 03:05:26 10° 187° (S) 5,686 - -37.5°
Exits shadow 03:12:58 - 166° (SSE) 6,421 12.0 -36.9°
Sets 03:13:07 0° 165° (SSE) 6,440 12.0 -36.8°
